EJU58VL LIMC-LEPA

Flight info

Callsign EJU58VL
Flight time 1h 27m
Altitude 29000
Route NEDED DCT GEKBA DCT VAMTU DCT KOLON DCT GANGU DCT PADKO DCT VATIR N852 VERSO L129 LUNIK
Aircraft A320/M-SDE2E3FGHIJ1RWXY/LB1

Departure

Time 2026-05-01 13:52
Airport Milan Malpensa International Airport (LIMC)

Arrival

Time 2026-05-01 15:20
Airport Palma de Mallorca Airport (LEPA)
Time Latitude Longitude Altitude Speed Heading
2026-05-01 13:23 45.64653 8.72500 740 ft 0 kts 259°
2026-05-01 13:38 45.64657 8.72528 740 ft 4 kts 259°
2026-05-01 13:39 45.64662 8.72563 740 ft 1 kts 259°
2026-05-01 13:39 45.64669 8.72592 740 ft 4 kts 220°
2026-05-01 13:39 45.64690 8.72601 739 ft 3 kts 169°
2026-05-01 13:39 45.64679 8.72604 739 ft 4 kts 169°
2026-05-01 13:40 45.64652 8.72611 740 ft 4 kts 169°
2026-05-01 13:40 45.64641 8.72614 740 ft 0 kts 169°
2026-05-01 13:42 45.64637 8.72616 740 ft 3 kts 169°
2026-05-01 13:42 45.64585 8.72630 740 ft 12 kts 169°
2026-05-01 13:42 45.64498 8.72642 740 ft 13 kts 198°
2026-05-01 13:43 45.64460 8.72518 740 ft 15 kts 260°
2026-05-01 13:43 45.64394 8.72432 739 ft 16 kts 172°
2026-05-01 13:43 45.64283 8.72464 740 ft 17 kts 169°
2026-05-01 13:43 45.64190 8.72490 741 ft 12 kts 168°
2026-05-01 13:44 45.64117 8.72511 741 ft 8 kts 168°
2026-05-01 13:44 45.64102 8.72515 739 ft 0 kts 169°
2026-05-01 13:44 45.64090 8.72519 741 ft 6 kts 168°
2026-05-01 13:44 45.64029 8.72541 739 ft 11 kts 164°
2026-05-01 13:45 45.63952 8.72565 740 ft 13 kts 168°
2026-05-01 13:45 45.63859 8.72592 739 ft 14 kts 169°
2026-05-01 13:45 45.63755 8.72620 741 ft 16 kts 169°
2026-05-01 13:45 45.63643 8.72651 741 ft 17 kts 169°
2026-05-01 13:46 45.63521 8.72685 740 ft 18 kts 169°
2026-05-01 13:46 45.63392 8.72720 741 ft 20 kts 169°
2026-05-01 13:46 45.63255 8.72759 741 ft 21 kts 168°
2026-05-01 13:46 45.63110 8.72792 741 ft 22 kts 173°
2026-05-01 13:47 45.62962 8.72839 741 ft 22 kts 170°
2026-05-01 13:47 45.62813 8.72879 741 ft 22 kts 169°
2026-05-01 13:47 45.62658 8.72921 740 ft 23 kts 169°
2026-05-01 13:47 45.62501 8.72964 741 ft 23 kts 169°
2026-05-01 13:48 45.62343 8.73008 741 ft 23 kts 168°
2026-05-01 13:48 45.62187 8.73051 740 ft 23 kts 169°
2026-05-01 13:48 45.62027 8.73095 741 ft 24 kts 169°
2026-05-01 13:48 45.61886 8.73133 741 ft 17 kts 169°
2026-05-01 13:49 45.61777 8.73168 741 ft 14 kts 159°
2026-05-01 13:49 45.61703 8.73284 741 ft 18 kts 124°
2026-05-01 13:49 45.61654 8.73390 741 ft 13 kts 123°
2026-05-01 13:49 45.61605 8.73493 741 ft 14 kts 123°
2026-05-01 13:50 45.61584 8.73590 741 ft 6 kts 93°
2026-05-01 13:50 45.61585 8.73607 741 ft 0 kts 86°
2026-05-01 13:51 45.61586 8.73627 741 ft 7 kts 85°
2026-05-01 13:51 45.61600 8.73719 739 ft 10 kts 62°
2026-05-01 13:51 45.61652 8.73727 737 ft 5 kts 349°
2026-05-01 13:51 45.61691 8.73716 739 ft 12 kts 349°
2026-05-01 13:52 45.62000 8.73630 740 ft 84 kts 349°
2026-05-01 13:52 45.62800 8.73410 740 ft 147 kts 349°
2026-05-01 13:52 45.63918 8.73096 1068 ft 167 kts 348°
2026-05-01 13:52 45.65052 8.72787 1837 ft 168 kts 349°
2026-05-01 13:53 45.66222 8.72551 2544 ft 173 kts 359°
2026-05-01 13:53 45.68638 8.72613 3931 ft 175 kts
2026-05-01 13:53 45.69911 8.72674 4408 ft 191 kts
2026-05-01 13:54 45.71283 8.72694 4883 ft 203 kts 354°
2026-05-01 13:54 45.72580 8.71867 5376 ft 216 kts 314°
2026-05-01 13:54 45.73323 8.69929 5863 ft 233 kts 280°
2026-05-01 13:54 45.73176 8.67599 6526 ft 242 kts 252°
2026-05-01 13:55 45.72626 8.65317 7401 ft 242 kts 250°
2026-05-01 13:55 45.72253 8.63809 7976 ft 244 kts 251°
2026-05-01 13:55 45.71685 8.61488 8746 ft 250 kts 251°
2026-05-01 13:55 45.70960 8.59184 9448 ft 263 kts 240°
2026-05-01 13:56 45.69989 8.56829 9902 ft 285 kts 239°
2026-05-01 13:56 45.68884 8.54418 10599 ft 294 kts 231°
2026-05-01 13:56 45.67379 8.52303 10990 ft 316 kts 215°
2026-05-01 13:56 45.65364 8.50909 11486 ft 329 kts 196°
2026-05-01 13:57 45.63140 8.50005 12242 ft 334 kts 194°
2026-05-01 13:57 45.60881 8.49114 13037 ft 339 kts 194°
2026-05-01 13:57 45.58593 8.48225 13822 ft 343 kts 194°
2026-05-01 13:57 45.56274 8.47328 14538 ft 348 kts 194°
2026-05-01 13:58 45.53924 8.46417 15213 ft 352 kts 194°
2026-05-01 13:58 45.51547 8.45493 15887 ft 356 kts 194°
2026-05-01 13:58 45.49143 8.44555 16556 ft 361 kts 194°
2026-05-01 13:58 45.46706 8.43606 17192 ft 365 kts 194°
2026-05-01 13:59 45.44243 8.42650 17846 ft 369 kts 194°
2026-05-01 13:59 45.41751 8.41684 18503 ft 374 kts 193°
2026-05-01 13:59 45.39229 8.40707 19082 ft 378 kts 194°
2026-05-01 13:59 45.36679 8.39724 19653 ft 381 kts 194°
2026-05-01 14:00 45.34104 8.38733 20231 ft 385 kts 194°
2026-05-01 14:00 45.31506 8.37734 20805 ft 388 kts 194°
2026-05-01 14:00 45.28886 8.36726 21383 ft 392 kts 194°
2026-05-01 14:00 45.26243 8.35712 21960 ft 395 kts 194°
2026-05-01 14:01 45.23576 8.34690 22546 ft 399 kts 194°
2026-05-01 14:01 45.20887 8.33660 23123 ft 402 kts 194°
2026-05-01 14:01 45.18178 8.32619 23696 ft 405 kts 195°
2026-05-01 14:01 45.15444 8.31567 24205 ft 409 kts 195°
2026-05-01 14:02 45.12688 8.30508 24682 ft 412 kts 195°
2026-05-01 14:02 45.09916 8.29446 25153 ft 414 kts 195°
2026-05-01 14:02 45.07122 8.28377 25615 ft 417 kts 195°
2026-05-01 14:02 45.04313 8.27302 26072 ft 420 kts 195°
2026-05-01 14:03 45.01485 8.26222 26520 ft 422 kts 195°
2026-05-01 14:03 44.98644 8.25141 26960 ft 425 kts 195°
2026-05-01 14:03 44.95781 8.24052 27396 ft 427 kts 195°
2026-05-01 14:03 44.92904 8.22961 27777 ft 430 kts 195°
2026-05-01 14:04 44.89999 8.21857 28139 ft 434 kts 195°
2026-05-01 14:04 44.87076 8.20748 28514 ft 437 kts 195°
2026-05-01 14:04 44.84130 8.19633 28897 ft 440 kts 195°
2026-05-01 14:04 44.81166 8.18513 29259 ft 442 kts 195°
2026-05-01 14:05 44.75334 8.16304 29349 ft 419 kts 195°
2026-05-01 14:05 44.69836 8.14051 29346 ft 408 kts 203°
2026-05-01 14:06 44.64904 8.10202 29346 ft 406 kts 213°
2026-05-01 14:06 44.60092 8.06062 29347 ft 406 kts 213°
2026-05-01 14:07 44.55282 8.01932 29347 ft 405 kts 212°
2026-05-01 14:08 44.48057 7.95767 29354 ft 405 kts 212°
2026-05-01 14:08 44.43257 7.91681 29366 ft 403 kts 212°
2026-05-01 14:09 44.38472 7.87606 29369 ft 402 kts 212°
2026-05-01 14:09 44.33697 7.83545 29356 ft 402 kts 212°
2026-05-01 14:10 44.28917 7.79496 29331 ft 402 kts 212°
2026-05-01 14:10 44.24496 7.74776 29324 ft 400 kts 223°
2026-05-01 14:11 44.20333 7.69633 29326 ft 400 kts 223°
2026-05-01 14:11 44.14138 7.61851 29310 ft 399 kts 229°
2026-05-01 14:12 44.10501 7.56026 29314 ft 399 kts 231°
2026-05-01 14:12 44.06865 7.50218 29331 ft 397 kts 231°
2026-05-01 14:13 44.03849 7.45409 29337 ft 396 kts 230°
2026-05-01 14:13 43.99622 7.38674 29334 ft 395 kts 230°
2026-05-01 14:14 43.96034 7.32961 29325 ft 395 kts 231°
2026-05-01 14:14 43.92422 7.27224 29322 ft 394 kts 231°
2026-05-01 14:15 43.88811 7.21501 29317 ft 394 kts 231°
2026-05-01 14:15 43.85194 7.15789 29316 ft 394 kts 230°
2026-05-01 14:16 43.81573 7.10079 29314 ft 394 kts 230°
2026-05-01 14:16 43.77958 7.04381 29310 ft 394 kts 231°
2026-05-01 14:17 43.74335 6.98688 29308 ft 394 kts 231°
2026-05-01 14:17 43.71334 6.92434 29303 ft 389 kts 249°
2026-05-01 14:18 43.69310 6.85503 29300 ft 389 kts 250°
2026-05-01 14:18 43.67615 6.79739 29287 ft 390 kts 250°
2026-05-01 14:19 43.65213 6.71625 29285 ft 391 kts 250°
2026-05-01 14:19 43.63154 6.64681 29284 ft 391 kts 251°
2026-05-01 14:20 43.60048 6.54253 29288 ft 392 kts 250°
2026-05-01 14:21 43.57976 6.47301 29282 ft 392 kts 251°
2026-05-01 14:21 43.55912 6.40393 29292 ft 391 kts 250°
2026-05-01 14:22 43.52800 6.30018 29302 ft 390 kts 251°
2026-05-01 14:22 43.50725 6.23123 29298 ft 389 kts 249°
2026-05-01 14:23 43.48650 6.16241 29285 ft 389 kts 249°
2026-05-01 14:23 43.46567 6.09378 29289 ft 388 kts 251°
2026-05-01 14:24 43.44492 6.02542 29311 ft 386 kts 248°
2026-05-01 14:24 43.42426 5.95759 29315 ft 383 kts 249°
2026-05-01 14:25 43.40366 5.89017 29297 ft 382 kts 250°
2026-05-01 14:25 43.38312 5.82295 29296 ft 381 kts 249°
2026-05-01 14:26 43.35234 5.72240 29285 ft 380 kts 249°
2026-05-01 14:27 43.33178 5.65572 29272 ft 379 kts 249°
2026-05-01 14:27 43.31121 5.58906 29269 ft 379 kts 249°
2026-05-01 14:28 43.28027 5.48932 29265 ft 378 kts 250°
2026-05-01 14:28 43.25966 5.42296 29262 ft 378 kts 249°
2026-05-01 14:29 43.23838 5.35699 29261 ft 379 kts 244°
2026-05-01 14:30 43.18434 5.27750 29270 ft 384 kts 223°
2026-05-01 14:30 43.16400 5.25379 29264 ft 384 kts 224°
2026-05-01 14:31 43.10355 5.18288 29276 ft 383 kts 224°
2026-05-01 14:31 43.06313 5.13547 29270 ft 383 kts 223°
2026-05-01 14:32 43.02262 5.08817 29267 ft 383 kts 224°
2026-05-01 14:32 42.98202 5.04111 29272 ft 383 kts 224°
2026-05-01 14:33 42.94146 4.99397 29269 ft 383 kts 224°
2026-05-01 14:33 42.90087 4.94690 29270 ft 383 kts 223°
2026-05-01 14:34 42.86036 4.89997 29288 ft 382 kts 224°
2026-05-01 14:34 42.81991 4.85320 29288 ft 381 kts 223°
2026-05-01 14:35 42.77956 4.80660 29286 ft 380 kts 223°
2026-05-01 14:35 42.73918 4.76005 29287 ft 380 kts 223°
2026-05-01 14:36 42.69885 4.71358 29267 ft 380 kts 223°
2026-05-01 14:36 42.65845 4.66727 29274 ft 380 kts 223°
2026-05-01 14:37 42.61797 4.62100 29280 ft 380 kts 223°
2026-05-01 14:37 42.57752 4.57471 29282 ft 380 kts 223°
2026-05-01 14:38 42.53738 4.52892 29282 ft 379 kts 221°
2026-05-01 14:38 42.51486 4.51017 29277 ft 383 kts 206°
2026-05-01 14:38 42.49027 4.49617 29274 ft 384 kts 205°
2026-05-01 14:39 42.44089 4.46854 29270 ft 384 kts 205°
2026-05-01 14:39 42.39145 4.44121 29263 ft 384 kts 205°
2026-05-01 14:40 42.34201 4.41388 29268 ft 384 kts 205°
2026-05-01 14:40 42.29256 4.38657 29263 ft 384 kts 205°
2026-05-01 14:41 42.24312 4.35911 29261 ft 384 kts 205°
2026-05-01 14:41 42.19372 4.33173 29247 ft 384 kts 205°
2026-05-01 14:42 42.14425 4.30444 29258 ft 384 kts 205°
2026-05-01 14:42 42.09473 4.27727 29249 ft 385 kts 205°
2026-05-01 14:43 42.05351 4.25474 29253 ft 385 kts 205°
2026-05-01 14:43 42.00392 4.22761 29255 ft 385 kts 205°
2026-05-01 14:44 41.95441 4.20044 29253 ft 384 kts 205°
2026-05-01 14:44 41.88021 4.15989 29252 ft 383 kts 205°
2026-05-01 14:45 41.80617 4.11954 29249 ft 382 kts 205°
2026-05-01 14:46 41.75689 4.09271 29242 ft 382 kts 205°
2026-05-01 14:46 41.68294 4.05261 29233 ft 382 kts 204°
2026-05-01 14:47 41.63360 4.02592 29228 ft 383 kts 204°
2026-05-01 14:48 41.55945 3.98586 29230 ft 383 kts 204°
2026-05-01 14:48 41.48555 3.94590 29235 ft 389 kts 204°
2026-05-01 14:49 41.38478 3.89100 29239 ft 387 kts 203°
2026-05-01 14:50 41.28467 3.83789 29239 ft 387 kts 203°
2026-05-01 14:51 41.20980 3.79789 29233 ft 386 kts 202°
2026-05-01 14:52 41.13527 3.75816 29245 ft 384 kts 202°
2026-05-01 14:53 41.06101 3.71863 29231 ft 383 kts 203°
2026-05-01 14:53 41.01150 3.69233 29222 ft 383 kts 203°
2026-05-01 14:54 40.96197 3.66611 29216 ft 384 kts 203°
2026-05-01 14:54 40.91237 3.63994 29214 ft 384 kts 203°
2026-05-01 14:55 40.86278 3.61380 29217 ft 384 kts 203°
2026-05-01 14:55 40.81313 3.58771 29202 ft 384 kts 203°
2026-05-01 14:56 40.76339 3.56157 29205 ft 385 kts 203°
2026-05-01 14:56 40.71359 3.53543 29207 ft 386 kts 203°
2026-05-01 14:57 40.66398 3.50948 29200 ft 386 kts 203°
2026-05-01 14:57 40.58912 3.47039 29202 ft 386 kts 203°
2026-05-01 14:58 40.53920 3.44430 29202 ft 386 kts 203°
2026-05-01 14:58 40.48930 3.41828 29200 ft 386 kts 203°
2026-05-01 14:59 40.43827 3.39652 29200 ft 388 kts 190°
2026-05-01 14:59 40.38414 3.39556 29194 ft 391 kts 179°
2026-05-01 15:00 40.32941 3.39870 29223 ft 403 kts 179°
2026-05-01 15:00 40.30089 3.40029 29220 ft 417 kts 179°
2026-05-01 15:01 40.24180 3.40365 29216 ft 426 kts 179°
2026-05-01 15:01 40.18261 3.40710 29214 ft 425 kts 179°
2026-05-01 15:02 40.12348 3.41041 29214 ft 425 kts 179°
2026-05-01 15:02 40.06435 3.41371 29214 ft 425 kts 179°
2026-05-01 15:02 40.03466 3.41539 28460 ft 431 kts 179°
2026-05-01 15:03 40.00459 3.41710 27769 ft 429 kts 179°
2026-05-01 15:03 39.97510 3.41880 27328 ft 421 kts 179°
2026-05-01 15:03 39.94599 3.42046 26781 ft 416 kts 179°
2026-05-01 15:03 39.91723 3.42205 26230 ft 412 kts 179°
2026-05-01 15:04 39.88868 3.42361 25691 ft 409 kts 179°
2026-05-01 15:04 39.86040 3.42522 25150 ft 405 kts 179°
2026-05-01 15:04 39.83232 3.42684 24634 ft 402 kts 179°
2026-05-01 15:04 39.80461 3.42840 23941 ft 396 kts 179°
2026-05-01 15:05 39.77720 3.42992 23053 ft 392 kts 179°
2026-05-01 15:05 39.75007 3.43140 22195 ft 387 kts 180°
2026-05-01 15:05 39.72368 3.42797 21393 ft 378 kts 198°
2026-05-01 15:05 39.70019 3.41379 20590 ft 370 kts 217°
2026-05-01 15:06 39.68204 3.39079 19804 ft 363 kts 236°
2026-05-01 15:06 39.66986 3.36242 18997 ft 359 kts 244°
2026-05-01 15:06 39.65875 3.33351 18430 ft 352 kts 244°
2026-05-01 15:06 39.64817 3.30596 18233 ft 332 kts 244°
2026-05-01 15:07 39.63815 3.27993 17766 ft 323 kts 244°
2026-05-01 15:07 39.62816 3.25407 17192 ft 318 kts 244°
2026-05-01 15:07 39.61829 3.22849 16592 ft 315 kts 244°
2026-05-01 15:07 39.60855 3.20324 15958 ft 312 kts 244°
2026-05-01 15:08 39.59887 3.17815 15323 ft 309 kts 244°
2026-05-01 15:08 39.58929 3.15339 14700 ft 306 kts 243°
2026-05-01 15:08 39.57979 3.12893 14104 ft 302 kts 243°
2026-05-01 15:08 39.57040 3.10472 13430 ft 300 kts 243°
2026-05-01 15:09 39.56107 3.08066 12739 ft 298 kts 243°
2026-05-01 15:09 39.55179 3.05680 12073 ft 295 kts 243°
2026-05-01 15:09 39.54262 3.03322 11464 ft 291 kts 243°
2026-05-01 15:09 39.53362 3.01007 10957 ft 284 kts 243°
2026-05-01 15:10 39.52476 2.98736 10323 ft 281 kts 244°
2026-05-01 15:10 39.50723 2.94254 8949 ft 279 kts 243°
2026-05-01 15:10 39.49845 2.92007 8376 ft 280 kts 243°
2026-05-01 15:11 39.48967 2.89754 7994 ft 280 kts 243°
2026-05-01 15:11 39.47199 2.85222 7452 ft 283 kts 242°
2026-05-01 15:11 39.46310 2.82954 7199 ft 282 kts 242°
2026-05-01 15:12 39.45421 2.80687 6925 ft 283 kts 242°
2026-05-01 15:12 39.43702 2.76093 6386 ft 285 kts 250°
2026-05-01 15:12 39.43311 2.73590 6094 ft 283 kts 263°
2026-05-01 15:13 39.42657 2.66262 5249 ft 262 kts 264°
2026-05-01 15:14 39.42236 2.61704 4749 ft 249 kts 263°
2026-05-01 15:14 39.42033 2.59494 4500 ft 247 kts 264°
2026-05-01 15:14 39.41661 2.55101 3988 ft 245 kts 271°
2026-05-01 15:15 39.43476 2.51888 3508 ft 230 kts 348°
2026-05-01 15:15 39.46195 2.53135 3153 ft 210 kts 56°
2026-05-01 15:16 39.47679 2.56242 2680 ft 194 kts 61°
2026-05-01 15:16 39.49045 2.59123 2142 ft 181 kts 61°
2026-05-01 15:17 39.50285 2.61732 1685 ft 162 kts 61°
2026-05-01 15:18 39.51982 2.65305 1068 ft 143 kts 61°
2026-05-01 15:18 39.52492 2.66380 881 ft 138 kts 61°
2026-05-01 15:19 39.54000 2.69532 358 ft 137 kts 60°
2026-05-01 15:19 39.54970 2.71612 40 ft 126 kts 58°
2026-05-01 15:19 39.55347 2.72405 38 ft 79 kts 58°
2026-05-01 15:20 39.55497 2.72941 38 ft 18 kts 88°
2026-05-01 15:20 39.55500 2.73063 38 ft 8 kts 89°
2026-05-01 15:20 39.55500 2.73099 38 ft 3 kts 89°
2026-05-01 15:21 39.55500 2.73114 38 ft 2 kts 88°
2026-05-01 15:21 39.55502 2.73141 38 ft 4 kts 83°
2026-05-01 15:21 39.55510 2.73187 38 ft 6 kts 73°
2026-05-01 15:21 39.55534 2.73246 36 ft 9 kts 58°
2026-05-01 15:22 39.55590 2.73363 38 ft 9 kts 58°
2026-05-01 15:22 39.55626 2.73441 37 ft 11 kts 62°
2026-05-01 15:22 39.55591 2.73524 38 ft 9 kts 149°
2026-05-01 15:23 39.55529 2.73572 38 ft 12 kts 149°
2026-05-01 15:23 39.55450 2.73633 38 ft 15 kts 148°
2026-05-01 15:23 39.55356 2.73709 38 ft 17 kts 148°
2026-05-01 15:23 39.55244 2.73797 38 ft 20 kts 148°
2026-05-01 15:24 39.55125 2.73891 38 ft 20 kts 148°
2026-05-01 15:24 39.55009 2.73982 38 ft 21 kts 148°
2026-05-01 15:24 39.54892 2.74074 38 ft 15 kts 149°
2026-05-01 15:24 39.54813 2.74123 38 ft 13 kts 178°
2026-05-01 15:25 39.54746 2.74035 38 ft 14 kts 238°
2026-05-01 15:25 39.54693 2.73925 38 ft 14 kts 238°
2026-05-01 15:25 39.54642 2.73817 37 ft 14 kts 238°
2026-05-01 15:25 39.54593 2.73713 38 ft 9 kts 238°
2026-05-01 15:26 39.54593 2.73643 36 ft 8 kts 311°
2026-05-01 15:26 39.54647 2.73617 37 ft 8 kts 342°
2026-05-01 15:26 39.54691 2.73619 38 ft 6 kts 34°
2026-05-01 15:26 39.54706 2.73645 38 ft 2 kts 56°
2026-05-01 15:27 39.54713 2.73659 38 ft 0 kts 57°